Date,TemperatureHighF,TemperatureAvgF,TemperatureLowF,DewpointHighF,DewpointAvgF,DewpointLowF,HumidityHigh,HumidityAvg,HumidityLow,PressureMaxIn,PressureMinIn,WindSpeedMaxMPH,WindSpeedAvgMPH,GustSpeedMaxMPH,PrecipitationSumIn
2013-4-1,63,47,35,48,38,13,97,74,39,29.82,29.60,18,5,30,0.28
2013-4-2,41,34,25,20,15,11,72,46,31,29.98,29.82,18,6,30,0.00
2013-4-3,46,36,29,18,15,12,56,43,27,30.18,29.95,19,8,31,0.00
2013-4-4,58,41,24,29,19,13,77,44,21,30.32,30.10,12,3,18,0.00
2013-4-5,62,47,37,33,28,21,79,53,22,30.10,29.72,15,4,23,0.00
2013-4-6,48,38,27,27,14,6,69,41,19,30.34,29.92,13,4,23,0.00
2013-4-7,56,41,22,42,30,18,94,67,35,30.34,30.06,13,3,22,0.00
2013-4-8,68,53,39,46,41,35,97,69,32,30.17,30.00,11,2,15,0.00
2013-4-9,73,58,47,53,45,40,97,67,36,30.15,29.94,16,3,23,0.00
2013-4-10,68,54,44,51,47,43,97,80,50,30.07,29.93,11,2,11,0.14
2013-4-11,55,48,40,49,42,29,97,83,51,30.19,29.88,6,2,10,0.06
2013-4-12,41,39,37,38,37,32,96,93,73,30.20,29.80,9,3,13,0.53
2013-4-13,56,44,36,42,37,34,96,78,49,29.95,29.76,10,2,18,0.06
2013-4-14,54,44,33,41,33,26,96,69,39,30.21,29.93,13,3,23,0.00
2013-4-15,61,45,27,39,33,25,95,67,36,30.42,30.21,7,1,10,0.00
2013-4-16,63,50,32,52,42,31,96,77,54,30.42,30.14,10,3,26,0.00
2013-4-17,69,59,42,54,41,30,94,57,25,30.36,30.12,11,3,17,0.00
2013-4-18,64,50,33,48,37,30,96,67,35,30.46,30.19,10,2,22,0.00
2013-4-19,74,63,52,64,59,48,98,88,61,30.19,29.68,12,4,23,0.00
2013-4-20,65,54,44,63,43,26,98,69,38,30.19,29.62,13,4,23,0.55
2013-4-21,56,43,30,33,25,20,93,52,27,30.60,30.18,11,3,21,0.00
2013-4-22,54,42,28,38,32,26,95,71,36,30.70,30.51,10,2,16,0.00
2013-4-23,43,41,37,42,39,32,96,93,78,30.51,30.04,8,2,15,0.09
2013-4-24,75,55,41,52,45,40,97,75,29,30.04,29.84,10,3,18,0.10
2013-4-25,66,54,42,54,38,25,97,59,26,30.21,29.83,16,3,26,0.02
2013-4-26,65,48,33,45,37,29,96,69,35,30.39,30.21,8,2,13,0.00
2013-4-27,68,49,32,47,37,30,97,68,31,30.40,30.29,6,1,13,0.00
2013-4-28,70,52,33,44,35,29,96,59,29,30.34,30.22,8,2,15,0.00
2013-4-29,68,55,42,50,39,27,97,60,26,30.27,30.19,8,2,18,0.00
2013-4-30,72,55,37,44,34,22,96,52,19,30.34,30.21,7,1,11,0.00